TimeCDT,TemperatureF,Dew PointF,Humidity,Sea Level PressureIn,VisibilityMPH,Wind Direction,Wind SpeedMPH,Gust SpeedMPH,PrecipitationIn,Events,Conditions,WindDirDegrees,DateUTC
1:15 AM,39.2,37.4,93,29.72,10.0,ESE,15.0,19.6,N/A,,Overcast,110,2012-10-23 06:15:00
1:55 AM,41.0,39.2,93,29.73,10.0,East,8.1,-,N/A,,Overcast,100,2012-10-23 06:55:00
2:35 AM,41.0,39.2,93,29.75,9.0,East,3.5,-,N/A,Rain,Light Rain,90,2012-10-23 07:35:00
2:55 AM,41.0,39.2,93,29.73,10.0,East,5.8,-,N/A,Rain,Light Rain,90,2012-10-23 07:55:00
3:15 AM,41.0,39.2,93,29.73,6.0,East,4.6,-,N/A,Rain,Light Rain,100,2012-10-23 08:15:00
3:35 AM,41.0,39.2,93,29.72,6.0,East,5.8,-,N/A,,Overcast,80,2012-10-23 08:35:00
3:55 AM,41.0,39.2,93,29.71,5.0,East,4.6,-,N/A,,Overcast,100,2012-10-23 08:55:00
4:15 AM,41.0,39.2,93,29.70,3.0,ESE,6.9,-,N/A,,Overcast,110,2012-10-23 09:15:00
4:35 AM,41.0,41.0,100,29.69,2.5,ESE,5.8,-,N/A,,Overcast,110,2012-10-23 09:35:00
4:55 AM,41.0,41.0,100,29.69,2.0,East,5.8,-,N/A,,Overcast,100,2012-10-23 09:55:00
5:15 AM,41.0,41.0,100,29.69,3.0,SE,5.8,-,N/A,,Overcast,130,2012-10-23 10:15:00
5:55 AM,41.0,41.0,100,29.67,3.0,ESE,6.9,-,N/A,,Overcast,120,2012-10-23 10:55:00
6:35 AM,42.8,41.0,93,29.65,3.0,ESE,8.1,-,N/A,,Overcast,110,2012-10-23 11:35:00
6:55 AM,42.8,41.0,93,29.65,5.0,ESE,10.4,-,N/A,,Mostly Cloudy,120,2012-10-23 11:55:00
7:15 AM,44.6,41.0,87,29.64,5.0,ESE,9.2,-,N/A,,Mostly Cloudy,110,2012-10-23 12:15:00
7:35 AM,44.6,42.8,93,29.64,5.0,ESE,9.2,-,N/A,Rain,Light Rain,120,2012-10-23 12:35:00
7:55 AM,44.6,42.8,93,29.65,5.0,SE,6.9,-,N/A,,Mostly Cloudy,130,2012-10-23 12:55:00
8:55 AM,44.6,42.8,93,29.66,5.0,Calm,Calm,-,N/A,,Overcast,0,2012-10-23 13:55:00
9:15 AM,44.6,42.8,93,29.66,4.0,Calm,Calm,-,N/A,,Overcast,0,2012-10-23 14:15:00
9:35 AM,44.6,44.6,100,29.66,3.0,Calm,Calm,-,N/A,,Overcast,0,2012-10-23 14:35:00
10:15 AM,46.4,44.6,93,29.65,5.0,Calm,Calm,-,N/A,,Overcast,0,2012-10-23 15:15:00
10:55 AM,46.4,44.6,93,29.65,1.8,Calm,Calm,-,0.01,Rain,Light Rain,0,2012-10-23 15:55:00
11:15 AM,46.4,44.6,93,29.66,1.8,NW,3.5,-,N/A,Rain,Light Rain,320,2012-10-23 16:15:00
11:35 AM,46.4,44.6,93,29.67,2.5,West,5.8,-,N/A,Rain,Light Rain,270,2012-10-23 16:35:00
11:55 AM,46.4,44.6,93,29.67,2.5,WSW,5.8,-,0.01,Rain,Light Rain,250,2012-10-23 16:55:00
12:15 PM,46.4,44.6,93,29.66,2.5,WNW,5.8,-,N/A,Rain,Light Rain,290,2012-10-23 17:15:00
12:35 PM,46.4,44.6,93,29.66,4.0,WNW,8.1,-,0.02,Rain,Light Rain,300,2012-10-23 17:35:00
12:55 PM,46.4,44.6,93,29.64,5.0,NW,10.4,-,0.02,Rain,Light Rain,320,2012-10-23 17:55:00
1:15 PM,46.4,44.6,93,29.66,7.0,WNW,11.5,-,N/A,Rain,Light Rain,290,2012-10-23 18:15:00
1:35 PM,46.4,44.6,93,29.67,7.0,WNW,9.2,-,N/A,Rain,Light Rain,300,2012-10-23 18:35:00
1:55 PM,46.4,42.8,87,29.68,3.0,WNW,11.5,-,0.02,Rain,Light Rain,300,2012-10-23 18:55:00
2:15 PM,46.4,44.6,93,29.68,3.0,WNW,12.7,-,0.02,Rain,Light Rain,290,2012-10-23 19:15:00
2:35 PM,44.6,42.8,93,29.70,4.0,West,16.1,20.7,0.03,Rain,Light Rain,280,2012-10-23 19:35:00
2:55 PM,44.6,42.8,93,29.71,2.0,WNW,12.7,23.0,0.07,Rain,Light Rain,290,2012-10-23 19:55:00
3:15 PM,44.6,42.8,93,29.71,4.0,WNW,10.4,17.3,N/A,Rain,Light Rain,300,2012-10-23 20:15:00